N3YVY Weather Reports


time (UTC)temp
C
wind
direction
speed
KPH
gust
KPH
rain 1hr
cm
rain 24hr
cm
rain mn
cm
humidity
%
barometer
mb
20260510153549 26 0.0 0.0 0.00 0.00 0.03 42 1012.9
20260510153051 26 0.0 0.0 0.00 0.00 0.03 44 1012.8
20260510152547 26 0.0 0.0 0.00 0.00 0.03 43 1012.7
20260510152045 25 0.0 0.0 0.00 0.00 0.03 44 1012.7
20260510151544 25 0.0 0.0 0.00 0.00 0.03 43 1012.7
20260510151042 25 0.0 0.0 0.00 0.00 0.03 43 1012.8
20260510150541 25 0.0 0.0 0.00 0.00 0.03 44 1012.7
20260510150040 25 0.0 0.0 0.00 0.00 0.03 47 1012.8
20260510145539 24 0.0 0.0 0.00 0.00 0.03 45 1012.8
20260510145036 24 0.0 0.0 0.00 0.00 0.03 47 1012.7
20260510144536 23 0.0 0.0 0.00 0.00 0.03 50 1012.5
20260510144034 23 0.0 0.0 0.00 0.00 0.03 51 1012.5
20260510143534 23 0.0 0.0 0.00 0.00 0.03 51 1012.5
20260510143039 23 0.0 0.0 0.00 0.00 0.03 53 1012.5
20260510142530 22 0.0 0.0 0.00 0.00 0.03 54 1012.4
20260510142029 22 0.0 0.0 0.00 0.00 0.03 57 1012.4
20260510141526 22 0.0 0.0 0.00 0.00 0.03 58 1012.5
20260510141027 21 0.0 0.0 0.00 0.00 0.03 59 1012.6
20260510140523 21 0.0 0.0 0.00 0.00 0.03 62 1012.6
20260510140023 20 0.0 0.0 0.00 0.00 0.03 64 1012.6
20260510135520 20 0.0 0.0 0.00 0.00 0.03 67 1012.6
20260510135020 20 0.0 0.0 0.00 0.00 0.03 69 1012.6
20260510134518 19 0.0 0.0 0.00 0.00 0.03 71 1012.6
20260510134017 18 0.0 0.0 0.00 0.00 0.03 73 1012.7
20260510133514 18 0.0 0.0 0.00 0.00 0.03 76 1012.7
20260510133015 18 0.0 0.0 0.00 0.00 0.03 77 1012.6
20260510132512 17 0.0 0.0 0.00 0.00 0.03 78 1012.6
20260510132011 17 0.0 0.0 0.00 0.00 0.03 78 1012.6
20260510131508 17 0.0 0.0 0.00 0.00 0.03 78 1012.5
20260510131007 17 0.0 0.0 0.00 0.00 0.03 78 1012.6
20260510130506 16 0.0 0.0 0.00 0.00 0.03 78 1012.7
20260510130012 16 0.0 0.0 0.00 0.00 0.03 78 1012.9
20260510125503 16 0.0 0.0 0.00 0.00 0.03 78 1013.1
20260510125001 16 0.0 0.0 0.00 0.00 0.03 78 1013.1
20260510124613 15 0.0 0.0 0.00 0.00 0.03 78 1013.1
20260510124059 15 0.0 0.0 0.00 0.00 0.03 78 1013.0
20260510123601 15 0.0 0.0 0.00 0.00 0.03 78 1013.0
20260510123056 14 0.0 0.0 0.00 0.00 0.03 78 1013.0
20260510122554 14 0.0 0.0 0.00 0.00 0.03 78 1013.0
20260510122053 14 0.0 0.0 0.00 0.00 0.03 78 1013.1
20260510121552 13 0.0 0.0 0.00 0.00 0.03 78 1013.0
20260510121050 13 0.0 0.0 0.00 0.00 0.03 78 1013.0
20260510120549 13 0.0 0.0 0.00 0.00 0.03 78 1012.9
20260510120047 13 0.0 0.0 0.00 0.00 0.03 78 1012.7
20260510115545 13 0.0 0.0 0.00 0.00 0.03 78 1012.7
20260510115045 13 0.0 0.0 0.00 0.00 0.03 78 1012.7
20260510114544 12 0.0 0.0 0.00 0.00 0.03 78 1012.7
20260510114041 12 0.0 0.0 0.00 0.00 0.03 78 1012.7
20260510113544 12 0.0 0.0 0.00 0.00 0.03 78 1012.6
20260510113039 12 0.0 0.0 0.00 0.00 0.03 78 1012.5
20260510112537 11 0.0 0.0 0.00 0.00 0.03 78 1012.4
20260510112036 11 0.0 0.0 0.00 0.00 0.03 78 1012.3
20260510111557 11 0.0 0.0 0.00 0.00 0.03 78 1012.3
20260510111032 11 0.0 0.0 0.00 0.00 0.03 78 1012.2
20260510110531 11 0.0 0.0 0.00 0.00 0.03 78 1012.0
20260510110031 11 0.0 0.0 0.00 0.00 0.03 77 1012.0
20260510105528 11 0.0 0.0 0.00 0.00 0.03 77 1012.0
20260510105026 11 0.0 0.0 0.00 0.00 0.03 77 1011.9
20260510104537 11 0.0 0.0 0.00 0.00 0.03 77 1011.7
20260510104023 11 0.0 0.0 0.00 0.00 0.03 77 1011.7
20260510103522 11 0.0 0.0 0.00 0.00 0.03 77 1011.4
20260510103028 11 0.0 0.0 0.00 0.00 0.03 76 1011.4
20260510102520 11 0.0 0.0 0.00 0.00 0.03 76 1011.2
20260510102019 11 0.0 0.0 0.00 0.00 0.03 76 1011.2
20260510101519 11 0.0 0.0 0.00 0.00 0.03 76 1011.2
20260510101015 11 0.0 0.0 0.00 0.00 0.03 76 1011.2
20260510100521 11 0.0 0.0 0.00 0.00 0.03 76 1011.1
20260510100012 11 0.0 0.0 0.00 0.00 0.03 76 1011.2
20260510095510 11 0.0 0.0 0.00 0.00 0.03 76 1011.2
20260510095011 11 0.0 0.0 0.00 0.00 0.03 76 1011.3
20260510094508 11 0.0 0.0 0.00 0.00 0.03 76 1011.2
20260510094007 11 0.0 0.0 0.00 0.00 0.03 76 1011.3
20260510093509 11 0.0 0.0 0.00 0.00 0.03 76 1011.3
20260510093004 11 0.0 0.0 0.00 0.00 0.03 76 1011.4
20260510092501 11 0.0 0.0 0.00 0.00 0.03 76 1011.2
20260510092002 11 0.0 0.0 0.00 0.00 0.03 76 1011.1
20260510091605 11 0.0 0.0 0.00 0.00 0.00 76 1011.1
20260510091057 11 0.0 0.0 0.00 0.00 0.00 76 1011.0
20260510090559 11 0.0 0.0 0.00 0.00 0.00 76 1011.0
20260510090104 11 0.0 0.0 0.00 0.00 0.00 75 1010.9
20260510085556 11 0.0 0.0 0.00 0.00 0.00 75 1010.8
20260510085052 11 0.0 0.0 0.00 0.00 0.00 75 1010.8
20260510084558 11 0.0 0.0 0.00 0.00 0.00 75 1010.8
20260510084049 11 0.0 0.0 0.00 0.00 0.00 75 1010.8
20260510083547 11 0.0 0.0 0.00 0.00 0.00 75 1010.8
20260510083047 11 0.0 0.0 0.00 0.00 0.00 75 1010.9
20260510082545 11 0.0 0.0 0.00 0.00 0.00 75 1010.7
20260510082044 11 0.0 0.0 0.00 0.00 0.00 74 1010.7
20260510081545 11 0.0 0.0 0.00 0.00 0.00 74 1010.7
20260510081040 11 0.0 0.0 0.00 0.00 0.00 74 1010.5
20260510080538 11 0.0 0.0 0.00 0.00 0.00 74 1010.4
20260510080042 11 0.0 0.0 0.00 0.00 0.00 74 1010.3
20260510075536 11 0.0 0.0 0.00 0.00 0.00 74 1010.2
20260510075035 11 0.0 0.0 0.00 0.00 0.00 74 1010.1
20260510074533 11 0.0 0.0 0.00 0.00 0.00 74 1010.1
20260510074033 11 0.0 0.0 0.00 0.00 0.00 73 1010.0
20260510073530 12 0.0 0.0 0.00 0.00 0.00 73 1010.1
20260510073036 12 0.0 0.0 0.00 0.00 0.00 73 1010.1
20260510072528 12 0.0 0.0 0.00 0.00 0.00 73 1009.9
20260510072026 12 0.0 0.0 0.00 0.00 0.00 73 1009.9
20260510071535 12 0.0 0.0 0.00 0.00 0.00 73 1009.9
20260510071022 12 0.0 0.0 0.00 0.00 0.00 73 1009.8
20260510070521 12 0.0 0.0 0.00 0.00 0.00 73 1009.8
20260510070024 12 0.0 0.0 0.00 0.00 0.00 73 1009.8
20260510065518 12 0.0 0.0 0.00 0.00 0.00 73 1009.7
20260510065017 12 0.0 0.0 0.00 0.00 0.00 73 1009.6
20260510064542 12 0.0 0.0 0.00 0.00 0.00 73 1009.7
20260510064013 12 0.0 0.0 0.00 0.00 0.00 73 1009.5
20260510063512 12 0.0 0.0 0.00 0.00 0.00 73 1009.4
20260510063017 12 0.0 0.0 0.00 0.00 0.00 73 1009.4
20260510062510 13 0.0 0.0 0.00 0.00 0.00 73 1009.4
20260510062008 13 0.0 0.0 0.00 0.00 0.00 73 1009.4
20260510061507 13 0.0 0.0 0.00 0.00 0.00 73 1009.5
20260510061005 13 0.0 0.0 0.00 0.00 0.00 73 1009.5
20260510060504 13 0.0 0.0 0.00 0.00 0.00 72 1009.5
20260510060006 13 0.0 0.0 0.00 0.00 0.00 73 1009.6
20260510055500 13 0.0 0.0 0.00 0.00 0.00 72 1009.7
20260510055059 13 0.0 0.0 0.00 0.00 0.00 72 1009.7
20260510054600 13 0.0 0.0 0.00 0.00 0.00 72 1009.7
20260510054056 13 0.0 0.0 0.00 0.00 0.00 72 1009.7
20260510053555 13 0.0 0.0 0.00 0.00 0.00 72 1009.7
20260510053053 13 0.0 0.0 0.00 0.00 0.00 72 1009.8
20260510052552 13 0.0 0.0 0.00 0.00 0.00 72 1009.8
20260510052051 13 0.0 0.0 0.00 0.00 0.00 72 1009.8
20260510051554 14 0.0 0.0 0.00 0.00 0.00 72 1009.8
20260510051050 14 0.0 0.0 0.00 0.00 0.00 71 1009.8
20260510050550 14 0.0 0.0 0.00 0.00 0.00 71 1009.7
20260510050049 14 0.0 0.0 0.00 0.00 0.00 70 1009.8
20260510045544 14 0.0 0.0 0.00 0.00 0.00 70 1009.8
20260510045043 14 0.0 0.0 0.00 0.00 0.00 70 1009.8
20260510044545 14 0.0 0.0 0.00 0.00 0.00 70 1009.8
20260510044039 15 0.0 0.0 0.00 0.00 0.00 70 1009.9
20260510043538 15 0.0 0.0 0.00 0.00 0.00 70 1009.9
20260510043037 15 0.0 0.0 0.00 0.00 0.00 70 1010.0
20260510042536 15 0.0 0.0 0.00 0.00 0.00 70 1009.9
20260510042033 15 0.0 0.0 0.00 0.00 0.00 70 1009.9
20260510041536 15 0.0 0.0 0.00 0.00 0.00 70 1009.9
20260510041030 15 0.0 0.0 0.00 0.00 0.00 70 1009.8
20260510040529 15 0.0 0.0 0.00 0.00 0.00 70 1009.8
20260510040028 15 0.0 0.0 0.00 0.00 0.00 70 1009.8
20260510035525 15 0.0 0.0 0.00 0.00 0.05 70 1009.8
20260510035024 15 0.0 0.0 0.00 0.00 0.05 70 1009.8
20260510034523 15 0.0 0.0 0.00 0.00 0.05 69 1009.8
20260510034022 15 0.0 0.0 0.00 0.00 0.05 69 1009.8
20260510033520 15 0.0 0.0 0.00 0.00 0.05 69 1009.8
20260510033019 16 0.0 0.0 0.00 0.00 0.05 69 1009.8
20260510032517 16 0.0 0.0 0.00 0.00 0.05 69 1009.8
20260510032016 16 0.0 0.0 0.00 0.00 0.05 69 1009.8
20260510031515 16 0.0 0.0 0.00 0.00 0.05 69 1009.8
20260510031012 16 0.0 0.0 0.00 0.00 0.05 68 1009.7
20260510030511 16 0.0 0.0 0.00 0.00 0.05 69 1009.7
20260510030010 16 0.0 0.0 0.00 0.00 0.05 68 1009.7
20260510025509 16 0.0 0.0 0.00 0.00 0.05 68 1009.7
20260510025007 16 0.0 0.0 0.00 0.00 0.05 68 1009.6
20260510024505 16 0.0 0.0 0.00 0.00 0.05 68 1009.7
20260510024006 16 0.0 0.0 0.00 0.00 0.05 68 1009.7
20260510023503 16 0.0 0.0 0.00 0.00 0.05 68 1009.6
20260510023001 16 0.0 0.0 0.00 0.00 0.05 68 1009.7
20260510022602 16 0.0 0.0 0.00 0.00 0.05 67 1009.7
20260510022058 17 0.0 0.0 0.00 0.00 0.05 67 1009.7
20260510021557 17 0.0 0.0 0.00 0.00 0.05 67 1009.6
20260510021055 17 0.0 0.0 0.00 0.00 0.05 67 1009.6
20260510020554 17 0.0 0.0 0.00 0.00 0.05 67 1009.6
20260510020053 17 0.0 0.0 0.00 0.00 0.05 66 1009.5
20260510015552 17 0.0 0.0 0.00 0.00 0.05 66 1009.4
20260510015049 17 0.0 0.0 0.00 0.00 0.05 66 1009.4
20260510014548 17 0.0 0.0 0.00 0.00 0.05 65 1009.3
20260510014047 17 0.0 0.0 0.00 0.00 0.05 65 1009.3
20260510013546 17 0.0 0.0 0.00 0.00 0.05 64 1009.2
20260510013051 18 0.0 0.0 0.00 0.00 0.05 64 1009.2
20260510012542 18 0.0 0.0 0.00 0.00 0.05 64 1009.2
20260510012041 18 0.0 0.0 0.00 0.00 0.05 63 1009.2
20260510011541 18 0.0 0.0 0.00 0.00 0.05 63 1009.1
20260510011037 18 0.0 0.0 0.00 0.00 0.05 62 1009.0
20260510010536 18 0.0 0.0 0.00 0.00 0.05 62 1009.0
20260510010035 18 0.0 0.0 0.00 0.00 0.05 61 1008.9
20260510005534 19 0.0 0.0 0.00 0.00 0.05 60 1008.8
20260510005032 19 0.0 0.0 0.00 0.00 0.05 59 1008.7
20260510004531 19 0.0 0.0 0.00 0.00 0.05 59 1008.7
20260510004029 20 0.0 0.0 0.00 0.00 0.05 58 1008.7
20260510003538 20 0.0 0.0 0.00 0.00 0.05 58 1008.6
20260510003039 20 0.0 0.0 0.00 0.00 0.05 57 1008.6
20260510002525 20 0.0 0.0 0.00 0.00 0.05 57 1008.5
20260510002024 20 0.0 0.0 0.00 0.00 0.05 56 1008.5
20260510001522 21 0.0 0.0 0.00 0.00 0.05 55 1008.5
20260510001023 21 0.0 0.0 0.00 0.00 0.05 55 1008.4
20260510000520 21 0.0 0.0 0.00 0.00 0.05 54 1008.4
20260510000018 21 0.0 0.0 0.00 0.00 0.05 54 1008.4
20260509235515 21 0.0 0.0 0.00 0.00 0.05 53 1008.3
20260509235015 22 0.0 0.0 0.00 0.00 0.05 53 1008.3
20260509234524 22 0.0 0.0 0.00 0.00 0.05 52 1008.2
20260509234011 22 0.0 0.0 0.00 0.00 0.05 51 1008.2
20260509233512 22 0.0 0.0 0.00 0.00 0.05 50 1008.2
20260509233021 23 0.0 0.0 0.00 0.00 0.05 50 1008.1
20260509232507 23 0.0 0.0 0.00 0.00 0.05 49 1008.1
20260509232006 23 0.0 0.0 0.00 0.00 0.05 49 1008.0
20260509231505 23 0.0 0.0 0.00 0.00 0.05 48 1008.1
20260509231002 24 0.0 0.0 0.00 0.00 0.05 48 1008.1
20260509230501 24 0.0 0.0 0.00 0.00 0.05 49 1008.0
20260509230107 24 0.0 0.0 0.00 0.00 0.05 49 1008.0
20260509225559 24 0.0 0.0 0.00 0.00 0.05 49 1007.9
20260509225100 24 0.0 0.0 0.00 0.00 0.05 49 1007.9
20260509224557 24 0.0 0.0 0.00 0.00 0.05 49 1007.8
20260509224058 24 0.0 0.0 0.00 0.00 0.05 50 1007.9
20260509223553 24 0.0 0.0 0.00 0.00 0.05 50 1008.0
20260509223052 24 0.0 0.0 0.00 0.00 0.05 49 1008.0
20260509222555 24 0.0 0.0 0.00 0.00 0.05 48 1008.0
20260509222049 24 0.0 0.0 0.00 0.00 0.05 49 1008.0
20260509221547 24 0.0 0.0 0.00 0.00 0.05 49 1007.9
20260509221048 24 0.0 0.0 0.00 0.00 0.05 49 1008.0
20260509220545 24 0.0 0.0 0.00 0.00 0.05 49 1008.1
20260509220043 23 0.0 0.0 0.00 0.00 0.05 49 1008.0
20260509215541 23 0.0 0.0 0.00 0.00 0.05 50 1008.1
20260509215040 23 0.0 0.0 0.00 0.00 0.05 49 1008.2
20260509214538 23 0.0 0.0 0.00 0.00 0.05 49 1008.2
20260509214037 24 0.0 0.0 0.00 0.00 0.05 48 1008.2
20260509213535 24 0.0 0.0 0.00 0.00 0.05 48 1008.2
20260509213034 24 0.0 0.0 0.00 0.00 0.05 48 1008.2
20260509212533 25 0.0 0.0 0.00 0.00 0.05 47 1008.3
20260509212036 25 0.0 0.0 0.00 0.00 0.05 47 1008.2
20260509211532 25 0.0 0.0 0.00 0.00 0.05 46 1008.1
20260509211028 25 0.0 0.0 0.00 0.00 0.05 46 1008.1
20260509210526 25 0.0 0.0 0.00 0.00 0.05 48 1008.1
20260509210029 25 0.0 0.0 0.00 0.00 0.05 47 1008.0
20260509205523 25 0.0 0.0 0.00 0.00 0.05 47 1008.0
20260509205022 25 0.0 0.0 0.00 0.00 0.05 48 1008.0
20260509204521 25 0.0 0.0 0.00 0.00 0.05 48 1008.0
20260509204022 25 0.0 0.0 0.00 0.00 0.05 48 1007.9
20260509203517 25 0.0 0.0 0.00 0.00 0.05 49 1007.9
20260509203016 24 0.0 0.0 0.00 0.00 0.05 50 1007.8
20260509202515 24 0.0 0.0 0.00 0.00 0.05 50 1008.0
20260509202014 24 0.0 0.0 0.00 0.00 0.05 52 1008.2
20260509201513 24 0.0 0.0 0.00 0.00 0.05 52 1008.2
20260509201011 23 0.0 0.0 0.00 0.00 0.05 52 1008.3
20260509200514 23 0.0 0.0 0.00 0.00 0.05 52 1008.4
20260509200007 23 0.0 0.0 0.00 0.00 0.05 53 1008.6
20260509195506 23 0.0 0.0 0.00 0.00 0.05 57 1008.5
20260509195005 22 0.0 0.0 0.00 0.00 0.05 58 1008.7
20260509194506 22 0.0 0.0 0.00 0.00 0.05 57 1008.8
20260509194002 22 0.0 0.0 0.00 0.00 0.05 58 1008.8
20260509193601 22 0.0 0.0 0.00 0.00 0.05 56 1009.0
20260509193101 22 0.0 0.0 0.00 0.00 0.05 59 1008.9
20260509192557 22 0.0 0.0 0.00 0.00 0.05 61 1009.0
20260509192056 21 0.0 0.0 0.00 0.00 0.05 63 1009.0
20260509191557 21 0.0 0.0 0.00 0.00 0.05 64 1009.1
20260509191054 21 0.0 0.0 0.00 0.00 0.05 63 1009.1
20260509190554 21 0.0 0.0 0.00 0.00 0.05 62 1009.1
20260509185549 20 0.0 0.0 0.00 0.00 0.05 62 1009.1
20260509185047 20 0.0 0.0 0.00 0.00 0.03 59 1009.3
20260509184552 20 0.0 0.0 0.00 0.00 0.00 58 1009.4
20260509184044 20 0.0 0.0 0.00 0.00 0.00 56 1009.4
20260509183545 20 0.0 0.0 0.00 0.00 0.00 55 1009.4
20260509183042 20 0.0 0.0 0.00 0.00 0.00 54 1009.2
20260509182542 20 0.0 0.0 0.00 0.00 0.00 54 1009.3
20260509182041 20 0.0 0.0 0.00 0.00 0.00 54 1009.4
20260509181539 20 0.0 0.0 0.00 0.00 0.00 55 1009.6
20260509181036 20 0.0 0.0 0.00 0.00 0.00 55 1009.7
20260509180534 20 0.0 0.0 0.00 0.00 0.00 55 1009.8
20260509180033 20 0.0 0.0 0.00 0.00 0.00 54 1009.8
20260509175531 20 0.0 0.0 0.00 0.00 0.00 54 1009.7
20260509175030 20 0.0 0.0 0.00 0.00 0.00 54 1009.6
20260509174529 20 0.0 0.0 0.00 0.00 0.00 53 1009.7
20260509174026 20 0.0 0.0 0.00 0.00 0.00 53 1009.8
20260509173525 20 0.0 0.0 0.00 0.00 0.00 53 1009.8
20260509173028 20 0.0 0.0 0.00 0.00 0.00 52 1009.9
20260509172523 20 0.0 0.0 0.00 0.00 0.00 51 1009.9
20260509172021 20 0.0 0.0 0.00 0.00 0.00 51 1010.0
20260509171529 21 0.0 0.0 0.00 0.00 0.00 50 1010.0
20260509171018 21 0.0 0.0 0.00 0.00 0.00 49 1010.0
20260509170517 21 0.0 0.0 0.00 0.00 0.00 49 1009.9
20260509170015 21 0.0 0.0 0.00 0.00 0.00 48 1009.9
20260509165513 21 0.0 0.0 0.00 0.00 0.00 47 1009.8
20260509165012 21 0.0 0.0 0.00 0.00 0.00 48 1009.9
20260509164511 21 0.0 0.0 0.00 0.00 0.00 48 1009.9
20260509164011 22 0.0 0.0 0.00 0.00 0.00 48 1009.9
20260509163508 22 0.0 0.0 0.00 0.00 0.00 47 1009.9
20260509163006 22 0.0 0.0 0.00 0.00 0.00 47 1009.9
20260509162505 22 0.0 0.0 0.00 0.00 0.00 47 1010.0
20260509162004 22 0.0 0.0 0.00 0.00 0.00 48 1010.0
20260509161502 22 0.0 0.0 0.00 0.00 0.00 47 1010.0
20260509161005 22 0.0 0.0 0.00 0.00 0.00 47 1010.1
20260509160559 22 0.0 0.0 0.00 0.00 0.00 48 1010.2
20260509160059 22 0.0 0.0 0.00 0.00 0.00 47 1010.2
20260509155557 22 0.0 0.0 0.00 0.00 0.00 47 1010.4
20260509155058 22 0.0 0.0 0.00 0.00 0.00 48 1010.3
20260509154606 22 0.0 0.0 0.00 0.00 0.00 48 1010.3
20260509154052 22 0.0 0.0 0.00 0.00 0.00 49 1010.2